EW8599 Weather Reports


time (UTC)temp
C
wind
direction
speed
KPH
gust
KPH
rain 1hr
cm
rain 24hr
cm
rain mn
cm
humidity
%
barometer
mb
20260506044851 10 265 0.0 0.0 0.00 0.00 0.00 86 998.6
20260506044620 9 265 0.0 0.0 0.00 0.41 0.00 86 998.3
20260506044357 10 265 0.0 0.0 0.00 0.41 0.00 86 998.5
20260506044349 10 265 0.0 0.0 0.00 0.00 0.00 86 998.6
20260506043846 10 265 0.0 0.0 0.00 0.00 0.00 86 998.6
20260506043615 10 265 0.0 0.0 0.00 0.41 0.00 86 998.6
20260506043343 10 265 0.0 0.0 0.00 0.00 0.00 86 998.6
20260506043120 10 265 0.0 0.0 0.00 0.41 0.00 86 998.6
20260506042841 10 265 0.0 0.0 0.00 0.00 0.00 86 998.6
20260506042615 10 265 0.0 0.0 0.00 0.41 0.00 86 998.6
20260506042340 10 265 0.0 0.0 0.00 0.00 0.00 86 998.6
20260506042115 10 265 0.0 0.0 0.00 0.41 0.00 86 998.6
20260506041838 10 265 0.0 0.0 0.00 0.00 0.00 86 998.6
20260506041614 10 265 0.0 0.0 0.00 0.41 0.00 86 998.5
20260506041335 10 265 0.0 0.0 0.00 0.00 0.00 86 998.6
20260506041109 10 265 0.0 0.0 0.00 0.41 0.00 86 998.4
20260506040840 10 265 0.0 0.0 0.00 0.41 0.00 86 998.4
20260506040832 10 265 0.0 0.0 0.00 0.00 0.00 86 998.6
20260506040329 10 265 0.0 0.0 0.00 0.00 0.00 86 998.2
20260506040105 10 265 0.0 0.0 0.00 0.41 0.00 86 998.2
20260506035825 10 265 0.0 0.0 0.00 0.00 0.00 86 998.2
20260506035606 10 265 0.0 0.0 0.00 0.41 0.00 86 998.3
20260506035323 10 265 0.0 0.0 0.00 0.00 0.00 85 998.6
20260506035106 10 265 0.0 0.0 0.00 0.41 0.00 85 998.4
20260506034820 10 265 0.0 0.0 0.00 0.00 0.00 85 998.6
20260506034605 10 265 0.0 0.0 0.00 0.41 0.00 85 998.5
20260506034317 10 265 0.0 0.0 0.00 0.00 0.00 85 998.6
20260506034106 10 265 0.0 0.0 0.00 0.41 0.00 85 998.4
20260506033814 10 265 0.0 0.0 0.00 0.00 0.00 85 998.6
20260506033606 10 265 0.0 0.0 0.00 0.41 0.00 85 998.6
20260506033340 11 265 0.0 0.0 0.00 0.41 0.00 85 998.6
20260506033311 11 265 0.0 0.0 0.00 0.00 0.00 85 998.6
20260506032808 11 265 0.0 0.0 0.00 0.00 0.00 85 998.6
20260506032613 11 265 0.0 0.0 0.00 0.41 0.00 85 998.5
20260506032306 11 265 0.0 0.0 0.00 0.00 0.00 85 998.9
20260506032105 11 265 0.0 0.0 0.00 0.41 0.00 85 998.7
20260506031801 11 265 0.0 0.0 0.00 0.00 0.00 85 998.9
20260506031605 11 265 0.0 0.0 0.00 0.41 0.00 85 998.8
20260506031259 11 265 0.0 0.0 0.00 0.00 0.00 85 998.9
20260506031103 11 265 0.0 0.0 0.00 0.41 0.00 85 998.8
20260506030756 11 265 0.0 0.0 0.00 0.00 0.00 85 998.9
20260506030603 11 275 0.0 0.0 0.00 0.41 0.00 85 998.9
20260506030254 11 275 0.0 0.0 0.00 0.00 0.00 85 998.9
20260506030106 11 275 0.0 0.0 0.00 0.41 0.00 85 998.8
20260506025751 11 275 0.0 0.0 0.00 0.00 0.00 84 998.9
20260506025603 11 275 0.0 0.0 0.00 0.41 0.00 84 998.9
20260506025247 11 275 0.0 0.0 0.00 0.00 0.00 84 998.9
20260506025105 11 275 0.0 0.0 0.00 0.41 0.00 84 998.8
20260506024744 11 275 0.0 0.0 0.00 0.00 0.00 84 998.9
20260506024605 11 275 0.0 0.0 0.00 0.41 0.00 84 998.9
20260506024241 11 275 0.0 0.0 0.00 0.00 0.00 84 998.9
20260506024103 11 275 0.0 0.0 0.00 0.41 0.00 84 998.8
20260506023737 11 275 0.0 0.0 0.00 0.00 0.00 84 998.9
20260506023602 11 275 0.0 0.0 0.00 0.41 0.00 84 998.9
20260506023234 11 275 0.0 0.0 0.00 0.00 0.00 84 999.2
20260506023107 11 275 0.0 0.0 0.00 0.41 0.00 83 999.0
20260506022731 11 275 0.0 0.0 0.00 0.00 0.00 83 999.2
20260506022605 11 275 0.0 0.0 0.00 0.41 0.00 83 999.1
20260506022229 11 275 0.0 0.0 0.00 0.00 0.00 83 999.2
20260506022101 11 275 0.0 0.0 0.00 0.41 0.00 83 999.1
20260506021726 11 275 0.0 0.0 0.00 0.00 0.00 83 999.2
20260506021559 11 275 0.0 0.0 0.00 0.41 0.00 83 999.2
20260506021224 11 283 0.0 0.0 0.00 0.00 0.00 83 999.2
20260506021058 11 283 0.0 0.0 0.00 0.41 0.00 83 999.2
20260506020720 11 283 0.0 0.0 0.00 0.00 0.00 82 999.2
20260506020559 11 283 0.0 0.0 0.00 0.41 0.00 82 999.0
20260506020218 11 283 0.0 0.0 0.00 0.00 0.00 82 999.2
20260506020056 11 283 0.0 0.0 0.00 0.41 0.00 82 999.1
20260506015715 12 283 0.0 0.0 0.00 0.00 0.00 82 998.9
20260506015553 12 281 0.0 0.0 0.00 0.41 0.00 82 998.8
20260506015341 12 294 0.0 0.0 0.00 0.41 0.00 82 998.6
20260506015213 12 294 0.0 0.0 0.00 0.00 0.00 82 998.6
20260506014710 12 294 0.0 0.0 0.00 0.00 0.00 82 998.6
20260506014550 12 294 0.0 0.0 0.00 0.41 0.00 82 998.5
20260506014206 12 284 0.0 0.0 0.00 0.00 0.00 81 998.6
20260506014051 12 284 0.0 0.0 0.00 0.41 0.00 81 998.5
20260506013820 12 289 0.0 0.0 0.00 0.41 0.00 81 998.4
20260506013704 12 288 0.0 0.0 0.00 0.00 0.00 81 998.6
20260506013201 12 301 0.0 0.0 0.00 0.00 0.00 81 998.6
20260506013047 12 301 0.0 0.0 0.00 0.41 0.00 81 998.2
20260506012657 12 275 0.0 0.0 0.00 0.00 0.00 81 998.2
20260506012544 12 273 0.0 0.0 0.00 0.41 0.00 81 998.3
20260506012153 12 331 0.0 0.0 0.00 0.00 0.00 81 998.6
20260506012041 12 331 0.0 0.0 0.00 0.41 0.00 81 998.3
20260506011651 12 351 0.0 0.0 0.00 0.00 0.00 80 998.2
20260506011539 13 246 0.0 0.0 0.00 0.41 0.00 80 998.2
20260506011147 13 265 0.0 0.0 0.00 0.00 0.00 80 998.2
20260506011039 13 264 0.0 0.0 0.00 0.41 0.00 80 998.1
20260506010646 13 266 0.0 0.0 0.00 0.00 0.00 80 998.2
20260506010537 13 266 0.0 0.0 0.00 0.41 0.00 80 998.1
20260506010143 13 273 0.0 0.0 0.00 0.00 0.00 80 998.2
20260506010037 13 227 0.0 0.0 0.00 0.41 0.00 80 998.0
20260506005639 13 306 0.0 0.0 0.00 0.00 0.00 80 997.9
20260506005535 13 285 0.0 0.0 0.00 0.41 0.00 80 997.9
20260506005136 13 46 0.0 0.0 0.00 0.00 0.00 80 997.9
20260506005031 13 327 0.0 0.0 0.00 0.41 0.00 80 997.8
20260506004632 14 338 0.0 0.0 0.00 0.00 0.00 81 997.9
20260506004551 14 269 0.0 0.0 0.00 0.41 0.00 82 997.7
20260506004547 14 309 0.0 0.0 0.00 0.41 0.00 82 997.7
20260506004130 14 269 0.0 0.0 0.00 0.00 0.00 82 997.9
20260506003626 15 286 0.0 0.0 0.00 0.00 0.00 84 997.9
20260506003532 15 275 0.0 0.0 0.00 0.41 0.00 84 997.8
20260506003122 15 320 0.0 0.0 0.00 0.00 0.00 87 997.9
20260506003027 15 319 0.0 0.0 0.00 0.41 0.00 87 997.8
20260506002618 15 53 0.0 0.0 0.00 0.00 0.00 88 997.6
20260506002529 15 51 0.0 0.0 0.00 0.41 0.00 88 997.6
20260506002114 16 36 0.0 0.0 0.00 0.00 0.00 89 997.6
20260506002028 16 36 0.0 0.0 0.00 0.41 0.00 89 997.6
20260506001611 16 178 0.0 0.0 0.00 0.00 0.00 89 997.2
20260506001526 16 178 0.0 0.0 0.00 0.41 0.00 89 997.1
20260506001108 16 179 0.0 0.0 0.00 0.00 0.00 89 997.6
20260506001025 16 179 0.0 0.0 0.00 0.41 0.00 89 997.3
20260506000606 16 178 0.0 0.0 0.00 0.00 0.00 88 997.2
20260506000524 16 178 0.0 0.0 0.00 0.41 0.00 88 997.1
20260506000023 16 247 0.0 0.0 0.00 0.41 0.00 88 997.2
20260505235601 16 247 0.0 0.0 0.00 0.00 0.00 88 996.9
20260505235524 16 247 0.0 0.0 0.00 0.41 0.00 88 996.9
20260505235057 16 160 0.0 0.0 0.00 0.00 0.00 88 996.9
20260505235019 16 160 0.0 0.0 0.00 0.41 0.00 88 996.8
20260505234554 16 160 0.0 0.0 0.00 0.00 0.00 88 996.9
20260505234531 16 160 0.0 0.0 0.00 0.41 0.00 88 996.8
20260505234051 16 160 0.0 0.0 0.00 0.00 0.00 87 996.5
20260505234017 16 160 0.0 0.0 0.00 0.41 0.00 87 996.6
20260505233549 16 160 0.0 0.0 0.00 0.00 0.00 87 996.5
20260505233519 16 160 0.0 0.0 0.00 0.41 0.00 87 996.4
20260505233046 16 160 0.0 0.0 0.00 0.00 0.00 87 996.2
20260505233018 16 160 0.0 0.0 0.00 0.41 0.00 87 996.2
20260505232544 16 160 0.0 0.0 0.00 0.00 0.00 87 996.2
20260505232513 16 160 0.0 0.0 0.00 0.41 0.00 87 996.0
20260505232041 16 160 0.0 0.0 0.00 0.00 0.00 87 996.2
20260505232015 16 160 0.0 0.0 0.00 0.41 0.00 87 996.0
20260505231537 16 160 0.0 0.0 0.00 0.00 0.00 87 996.2
20260505231508 16 160 0.0 0.0 0.00 0.41 0.00 87 996.0
20260505231036 16 160 0.0 0.0 0.00 0.00 0.00 86 996.2
20260505231011 16 160 0.0 0.0 0.00 0.41 0.00 86 995.9
20260505230533 16 160 0.0 0.0 0.00 0.00 0.00 86 995.9
20260505230520 16 160 0.0 0.0 0.00 0.41 0.00 86 995.8
20260505230030 17 160 0.0 0.0 0.00 0.00 0.00 86 995.9
20260505230009 17 160 0.0 0.0 0.00 0.41 0.00 86 995.6
20260505225743 17 160 0.0 0.0 0.00 0.41 0.00 85 995.6
20260505225526 17 160 0.0 0.0 0.00 0.00 0.00 85 995.9
20260505225022 17 160 0.0 0.0 0.00 0.00 0.00 84 995.4
20260505224955 17 160 0.0 0.0 0.00 0.41 0.00 85 995.4
20260505224727 17 160 0.0 0.0 0.00 0.41 0.00 83 995.5
20260505224519 17 160 0.0 0.0 0.00 0.00 0.00 83 995.9
20260505224016 17 161 0.0 0.0 0.00 0.00 0.00 81 995.4
20260505223942 17 161 0.0 0.0 0.00 0.41 0.00 81 995.5
20260505223514 18 105 0.0 0.0 0.00 0.00 0.00 79 995.4
20260505223439 18 105 0.0 0.0 0.00 0.41 0.00 79 995.4
20260505223009 18 126 0.0 0.0 0.00 0.00 0.00 76 995.4
20260505222939 18 126 0.0 0.0 0.00 0.41 0.00 77 995.3
20260505222501 19 159 0.0 0.0 0.00 0.00 0.00 75 995.4
20260505222439 19 147 0.0 0.0 0.00 0.41 0.00 74 995.4
20260505221956 19 135 0.0 0.0 0.00 0.00 0.00 73 995.4
20260505221937 19 137 0.0 0.0 0.00 0.41 0.00 73 995.5
20260505221454 20 150 0.0 0.0 0.00 0.00 0.00 74 995.4
20260505221436 20 156 0.0 0.0 0.00 0.41 0.00 74 995.3
20260505220951 20 138 0.0 0.0 0.00 0.00 0.00 81 995.4
20260505220931 20 275 0.0 0.0 0.00 0.41 0.00 81 995.2
20260505220448 20 169 0.0 0.0 0.00 0.00 0.00 82 995.1
20260505220430 20 169 0.0 0.0 0.00 0.41 0.00 82 994.9
20260505215945 21 169 0.0 0.0 0.00 0.00 0.00 83 994.7
20260505215932 21 169 0.0 0.0 0.00 0.41 0.00 83 994.7
20260505215444 21 169 0.0 0.0 0.00 0.00 0.00 82 994.7
20260505215431 21 169 0.0 0.0 0.00 0.41 0.00 82 994.7
20260505214941 21 169 0.0 0.0 0.00 0.00 0.00 83 994.7
20260505214930 21 169 0.0 0.0 0.00 0.41 0.00 83 994.5
20260505214438 21 169 0.0 0.0 0.00 0.00 0.00 82 994.7
20260505214432 21 169 0.0 0.0 0.00 0.41 0.00 82 994.6
20260505213939 20 169 0.0 0.0 0.00 0.41 0.00 83 994.6
20260505213936 20 169 0.0 0.0 0.00 0.00 0.00 83 994.7
20260505213433 20 169 0.0 0.0 0.00 0.00 0.00 83 994.7
20260505212932 20 169 0.0 0.0 0.00 0.41 0.00 83 994.7
20260505212929 20 169 0.0 0.0 0.00 0.00 0.00 83 994.7
20260505212432 20 169 0.0 0.0 0.00 0.41 0.00 83 994.6
20260505212427 20 169 0.0 0.0 0.00 0.00 0.00 83 994.7
20260505211931 20 169 0.0 0.0 0.00 0.41 0.00 83 994.6
20260505211923 20 169 0.0 0.0 0.00 0.00 0.00 83 994.7
20260505211433 20 170 0.0 0.0 0.00 0.41 0.00 83 994.5
20260505211420 20 170 0.0 0.0 0.00 0.00 0.00 83 994.7
20260505210932 20 171 0.0 0.0 0.03 0.41 0.00 84 994.5
20260505210917 20 171 0.0 0.0 0.03 0.00 0.00 84 994.4
20260505210431 20 172 0.0 0.0 0.03 0.41 0.00 85 994.4
20260505210414 20 165 0.0 0.0 0.03 0.00 0.00 85 994.7
20260505205926 19 165 0.0 0.0 0.03 0.41 0.00 85 994.4
20260505205911 20 165 0.0 0.0 0.03 0.00 0.00 85 994.4
20260505205421 19 174 0.0 0.0 0.03 0.41 0.00 86 994.4
20260505205409 19 174 0.0 0.0 0.03 0.00 0.00 86 994.4
20260505204919 19 174 0.0 0.0 0.03 0.41 0.00 87 994.5
20260505204906 19 181 0.0 0.0 0.03 0.00 0.00 87 994.7
20260505204418 19 92 0.0 0.0 0.03 0.41 0.00 88 994.5
20260505204403 19 92 0.0 0.0 0.03 0.00 0.00 88 994.7
20260505203919 19 124 0.0 0.0 0.05 0.41 0.00 88 994.7
20260505203900 19 124 0.0 0.0 0.05 0.00 0.00 88 994.7
20260505203417 18 123 0.0 0.0 0.05 0.41 0.00 88 994.7
20260505203357 18 123 0.0 0.0 0.05 0.00 0.00 88 994.7
20260505203200 18 170 0.0 0.0 0.05 0.41 0.00 88 994.7
20260505202853 18 170 0.0 0.0 0.08 0.00 0.00 88 994.7
20260505202415 18 170 0.0 0.0 0.08 0.41 0.00 88 994.8
20260505202349 18 176 0.0 0.0 0.08 0.00 0.00 88 994.7
20260505202159 18 173 0.0 0.0 0.10 0.41 0.00 89 994.8
20260505201846 18 173 0.0 0.0 0.10 0.00 0.00 90 994.7
20260505201415 18 178 0.0 0.0 0.10 0.41 0.00 90 994.9
20260505201343 18 144 0.0 0.0 0.10 0.00 0.00 90 995.1
20260505200919 18 142 0.0 0.0 0.10 0.38 0.00 90 995.1
20260505200842 18 142 0.0 0.0 0.10 0.00 0.00 90 995.4
20260505200416 18 143 0.0 0.0 0.13 0.38 0.00 90 995.2
20260505200338 18 143 0.0 0.0 0.13 0.00 0.00 90 995.4
20260505195912 17 143 0.0 0.0 0.13 0.38 0.00 88 995.3
20260505195834 17 143 0.0 0.0 0.13 0.00 0.00 88 995.4
20260505195645 17 144 0.0 0.0 0.13 0.38 0.00 88 995.4
20260505195331 17 144 0.0 0.0 0.13 0.00 0.00 88 995.4
20260505194913 17 144 0.0 0.0 0.13 0.38 0.00 87 995.4
20260505194828 17 144 0.0 0.0 0.15 0.00 0.00 87 995.4
20260505194412 17 143 0.0 0.0 0.18 0.38 0.00 86 995.7
20260505194326 17 143 0.0 0.0 0.18 0.00 0.00 86 995.9
20260505193913 17 143 0.0 0.0 0.20 0.36 0.00 85 996.0
20260505193821 17 143 0.0 0.0 0.20 0.00 0.00 84 996.2
20260505193413 18 143 0.0 0.0 0.23 0.36 0.00 83 996.0
20260505193319 18 144 0.0 0.0 0.23 0.00 0.00 83 996.2
20260505193149 18 163 0.0 0.0 0.23 0.36 0.00 82 995.9
20260505192816 18 163 0.0 0.0 0.20 0.00 0.00 82 996.2
20260505192412 18 109 0.0 0.0 0.20 0.33 0.00 81 995.9
20260505192315 19 124 0.0 0.0 0.20 0.00 0.00 81 996.2
20260505192155 19 224 0.0 0.0 0.18 0.30 0.00 80 996.0
20260505191812 20 225 0.0 0.0 0.18 0.00 0.00 79 996.2
20260505191412 20 224 0.0 0.0 0.18 0.30 0.00 79 995.8
20260505191310 20 224 0.0 0.0 0.18 0.00 0.00 78 995.9
20260505190914 20 224 0.0 0.0 0.15 0.28 0.00 76 995.8
20260505190807 20 224 0.0 0.0 0.15 0.00 0.00 76 995.9
20260505190412 20 224 0.0 0.0 0.13 0.25 0.00 74 995.7
20260505190302 21 224 0.0 0.0 0.13 0.00 0.00 73 995.9
20260505185914 21 225 0.0 0.0 0.13 0.25 0.00 73 995.3
20260505185758 21 225 0.0 0.0 0.13 0.00 0.00 73 995.4
20260505185413 22 225 0.0 0.0 0.13 0.25 0.00 71 994.9
20260505185254 22 225 0.0 0.0 0.13 0.00 0.00 70 995.1
20260505184908 22 225 0.0 0.0 0.13 0.25 0.00 69 994.9
20260505184750 22 225 0.0 0.0 0.10 0.00 0.00 67 994.7
20260505184408 23 224 0.0 0.0 0.08 0.20 0.00 63 994.7
20260505184248 23 227 0.0 0.0 0.08 0.00 0.00 60 994.7
20260505183908 23 328 0.0 0.0 0.03 0.15 0.00 55 994.6
20260505183745 23 310 0.0 0.0 0.03 0.00 0.00 53 994.7
20260505183408 24 60 0.0 0.0 0.00 0.13 0.00 48 994.0
20260505183242 24 229 0.0 0.0 0.00 0.00 0.00 49 994.1
20260505182908 24 188 0.0 0.0 0.00 0.13 0.00 47 993.6
20260505182738 24 188 0.0 0.0 0.00 0.00 0.00 45 993.7
20260505182411 24 159 0.0 0.0 0.00 0.13 0.00 44 993.7
20260505182235 25 68 0.0 0.0 0.00 0.00 0.00 44 993.7
20260505181909 25 20 0.0 0.0 0.00 0.13 0.00 44 993.7
20260505181732 25 212 0.0 0.0 0.00 0.00 0.00 45 993.7
20260505181409 25 128 0.0 0.0 0.00 0.13 0.00 45 993.5
20260505181229 25 128 0.0 0.0 0.00 0.00 0.00 45 993.7
20260505180911 25 128 0.0 0.0 0.00 0.13 0.00 45 993.5
20260505180726 25 127 0.0 0.0 0.00 0.00 0.00 42 993.7
20260505180405 25 85 0.0 0.0 0.00 0.13 0.00 42 993.6
20260505180222 25 138 0.0 0.0 0.00 0.00 0.00 41 993.7
20260505175905 25 10 0.0 0.0 0.00 0.13 0.00 44 993.7
20260505175719 25 144 0.0 0.0 0.00 0.00 0.00 44 994.1
20260505175406 25 252 0.0 0.0 0.00 0.13 0.00 44 993.8
20260505175215 25 265 0.0 0.0 0.00 0.00 0.00 44 994.1
20260505174932 24 277 0.0 0.0 0.00 0.13 0.00 44 994.0
20260505174916 25 177 0.0 0.0 0.00 0.13 0.00 43 993.9
20260505174712 24 279 0.0 0.0 0.00 0.00 0.00 44 994.1
20260505174209 24 42 0.0 0.0 0.00 0.00 0.00 46 994.1
20260505173907 24 173 0.0 0.0 0.00 0.13 0.00 48 994.1
20260505173705 23 134 0.0 0.0 0.00 0.00 0.00 46 994.4
20260505173406 23 145 0.0 0.0 0.00 0.13 0.00 48 994.3
20260505173202 23 73 0.0 0.0 0.00 0.00 0.00 49 994.4
20260505172911 23 329 0.0 0.0 0.00 0.13 0.00 50 994.3
20260505172659 23 355 0.0 0.0 0.00 0.00 0.00 45 994.4
20260505172412 23 163 0.0 0.0 0.00 0.13 0.00 46 994.4
20260505172156 23 355 0.0 0.0 0.00 0.00 0.00 47 994.7
20260505171908 23 133 0.0 0.0 0.00 0.13 0.00 50 994.6
20260505171655 23 134 0.0 0.0 0.00 0.00 0.00 47 994.7
20260505171406 23 47 0.0 0.0 0.00 0.13 0.00 46 994.6
20260505171153 23 335 0.0 0.0 0.00 0.00 0.00 51 994.7
20260505171139 23 335 0.0 0.0 0.00 0.13 0.00 51 994.5
20260505170650 23 15 0.0 0.0 0.00 0.00 0.00 49 994.7
20260505170405 23 279 0.0 0.0 0.00 0.13 0.00 46 994.5
20260505170146 23 132 0.0 0.0 0.00 0.00 0.00 46 994.7
20260505165935 23 194 0.0 0.0 0.00 0.13 0.00 47 994.6
20260505165646 23 46 0.0 0.0 0.00 0.00 0.00 45 994.7
20260505165409 23 329 0.0 0.0 0.00 0.13 0.00 46 994.7
20260505165143 23 328 0.0 0.0 0.00 0.00 0.00 45 994.7
20260505164911 23 153 0.0 0.0 0.00 0.13 0.00 45 994.6
20260505164638 23 0 0.0 0.0 0.00 0.00 0.00 46 994.7
20260505164403 23 189 0.0 0.0 0.00 0.13 0.00 47 994.7
20260505164136 23 63 0.0 0.0 0.00 0.00 0.00 49 994.4
20260505163905 23 70 0.0 0.0 0.00 0.13 0.00 48 994.3
20260505163634 24 342 0.0 0.0 0.00 0.00 0.00 48 994.4
20260505163628 24 342 0.0 0.0 0.00 0.13 0.00 48 994.1
20260505163132 24 318 0.0 0.0 0.00 0.00 0.00 45 994.1
20260505162903 24 342 0.0 0.0 0.00 0.13 0.00 48 994.0
20260505162629 24 172 0.0 0.0 0.00 0.00 0.00 45 994.1
20260505162403 24 244 0.0 0.0 0.00 0.13 0.00 45 994.1
20260505162126 24 30 0.0 0.0 0.00 0.00 0.00 44 994.1
20260505161903 24 192 0.0 0.0 0.00 0.13 0.00 45 994.2
20260505161623 24 118 0.0 0.0 0.00 0.00 0.00 44 994.1
20260505161402 24 184 0.0 0.0 0.00 0.13 0.00 44 994.0
20260505161120 24 144 0.0 0.0 0.00 0.00 0.00 47 994.4
20260505160900 24 318 0.0 0.0 0.00 0.13 0.00 45 994.3
20260505160618 24 173 0.0 0.0 0.00 0.00 0.00 44 994.4
20260505160400 24 161 0.0 0.0 0.00 0.13 0.00 45 994.4
20260505160115 24 66 0.0 0.0 0.00 0.00 0.00 46 994.4
20260505153358 25 201 0.0 0.0 0.00 0.13 0.00 48 994.8
20260505153055 25 200 0.0 0.0 0.00 0.00 0.00 47 994.7
20260505152858 25 309 0.0 0.0 0.00 0.13 0.00 45 994.8
20260505152551 25 157 0.0 0.0 0.00 0.00 0.00 45 994.7
20260505152355 25 165 0.0 0.0 0.00 0.13 0.00 46 994.8
20260505152047 25 121 0.0 0.0 0.00 0.00 0.00 48 994.7
20260505151856 25 196 0.0 1.6 0.00 0.13 0.00 47 994.6
20260505151542 25 189 0.0 1.6 0.00 0.00 0.00 45 994.7
20260505151357 25 0 0.0 1.6 0.00 0.13 0.00 45 994.7
20260505151125 25 92 0.0 0.0 0.00 0.13 0.00 48 994.6
20260505151040 25 355 0.0 0.0 0.00 0.00 0.00 50 994.7
20260505150536 25 98 0.0 0.0 0.00 0.00 0.00 46 994.7
20260505150355 24 323 0.0 0.0 0.00 0.13 0.00 46 994.5
20260505140502 22 119 0.0 0.0 0.00 0.00 0.00 55 994.4
20260505140334 22 146 0.0 0.0 0.00 0.13 0.00 54 994.5
20260505124915 17 126 0.0 0.0 0.00 0.00 0.00 76 995.1
20260505124807 17 126 0.0 0.0 0.00 0.13 0.00 76 994.9
20260505124412 16 171 0.0 0.0 0.00 0.00 0.00 79 995.4
20260505124309 16 172 0.0 0.0 0.00 0.13 0.00 79 995.0
20260505123908 16 117 0.0 0.0 0.00 0.00 0.00 81 995.4
20260505123806 16 95 0.0 0.0 0.00 0.13 0.00 81 995.2
20260505123405 15 180 0.0 0.0 0.00 0.00 0.00 83 995.4
20260505123305 15 180 0.0 0.0 0.00 0.13 0.00 83 995.4
20260505122900 15 159 0.0 0.0 0.00 0.00 0.00 85 995.4
20260505122805 15 139 0.0 0.0 0.00 0.13 0.00 85 995.4
20260505122358 15 42 0.0 0.0 0.00 0.00 0.00 86 995.4
20260505122305 15 198 0.0 0.0 0.00 0.13 0.00 86 995.4
20260505121855 15 164 0.0 0.0 0.00 0.00 0.00 87 995.4
20260505121804 14 134 0.0 0.0 0.00 0.13 0.00 87 995.4
20260505121352 14 171 0.0 0.0 0.00 0.00 0.00 87 995.9
20260505121305 14 180 0.0 0.0 0.00 0.13 0.00 87 995.6
20260505120847 13 171 0.0 0.0 0.00 0.00 0.00 88 995.4
20260505120803 13 169 0.0 0.0 0.00 0.13 0.00 88 995.4
20260505120344 13 192 0.0 0.0 0.00 0.00 0.00 88 995.9
20260505120304 13 192 0.0 0.0 0.00 0.13 0.00 88 995.5
20260505115843 13 165 0.0 0.0 0.00 0.00 0.00 89 995.9
20260505115803 13 165 0.0 0.0 0.00 0.13 0.00 89 995.5
20260505115340 13 142 0.0 1.6 0.00 0.00 0.00 90 995.4
20260505115313 13 142 0.0 1.6 0.00 0.13 0.00 90 995.4
20260505114838 13 171 0.0 1.6 0.00 0.00 0.00 91 995.4
20260505114804 13 157 0.0 1.6 0.00 0.13 0.00 91 995.3
20260505114334 13 109 0.0 0.0 0.00 0.00 0.00 91 995.4
20260505114304 13 109 0.0 0.0 0.00 0.13 0.00 91 995.3
20260505113830 13 158 0.0 0.0 0.00 0.00 0.00 91 995.4
20260505113802 13 164 0.0 0.0 0.00 0.13 0.00 91 995.3
20260505113327 13 148 0.0 0.0 0.00 0.00 0.00 92 995.4
20260505113302 13 148 0.0 0.0 0.00 0.13 0.00 92 995.4
20260505112823 13 148 0.0 0.0 0.00 0.00 0.00 92 995.4
20260505112803 13 148 0.0 0.0 0.00 0.13 0.00 92 995.3
20260505112320 12 71 0.0 0.0 0.00 0.00 0.00 91 995.4
20260505112305 12 71 0.0 0.0 0.00 0.13 0.00 91 995.2
20260505112036 12 172 0.0 0.0 0.00 0.13 0.00 91 995.1
20260505111816 12 173 0.0 0.0 0.00 0.00 0.00 91 995.1
20260505111536 12 131 0.0 0.0 0.00 0.13 0.00 91 995.1
20260505111312 12 131 0.0 0.0 0.00 0.00 0.00 91 995.1
20260505111032 12 175 0.0 0.0 0.00 0.13 0.00 91 995.2
20260505110808 12 162 0.0 0.0 0.00 0.00 0.00 91 995.4
20260505110306 12 161 0.0 0.0 0.03 0.00 0.00 90 995.1
20260505110259 12 157 0.0 0.0 0.03 0.13 0.00 90 995.1
20260505101749 13 74 0.0 0.0 0.13 0.13 0.00 87 994.6
20260505101739 13 74 0.0 0.0 0.13 0.00 0.00 87 994.7
20260505101250 13 74 0.0 0.0 0.13 0.13 0.00 86 994.5
20260505101235 13 74 0.0 0.0 0.13 0.00 0.00 86 994.7
20260505101017 13 74 0.0 0.0 0.13 0.13 0.00 86 994.5
20260505100732 13 74 0.0 0.0 0.13 0.00 0.00 86 994.7
20260505100250 13 69 0.0 0.0 0.10 0.10 0.00 86 994.7
20260505100229 13 63 0.0 0.0 0.10 0.00 0.00 86 994.7
20260505095753 13 105 0.0 0.0 0.08 0.08 0.00 85 995.2
20260505095724 13 158 0.0 0.0 0.05 0.00 0.00 85 995.4
20260505095530 13 38 0.0 0.0 0.00 0.00 0.00 82 996.0
20260505095222 12 281 0.0 0.0 0.00 0.00 0.00 81 996.2
20260505094750 12 105 0.0 0.0 0.00 0.00 0.00 78 995.6
20260505094717 12 105 0.0 0.0 0.00 0.00 0.00 78 995.9
20260505094249 12 103 0.0 0.0 0.00 0.00 0.00 79 995.2
20260505094214 12 159 0.0 0.0 0.00 0.00 0.00 78 995.1
20260505094024 12 147 0.0 0.0 0.00 0.00 0.00 79 995.0
20260505093710 12 142 0.0 0.0 0.00 0.00 0.00 79 995.1
20260505093250 12 146 0.0 0.0 0.00 0.00 0.00 78 994.9
20260505093208 12 146 0.0 0.0 0.00 0.00 0.00 78 994.7
20260505092747 12 152 0.0 0.0 0.00 0.00 0.00 78 994.8
20260505092704 12 152 0.0 0.0 0.00 0.00 0.00 78 994.7
20260505092246 12 153 0.0 0.0 0.00 0.00 0.00 77 994.7
20260505092204 12 153 0.0 0.0 0.00 0.00 0.00 77 994.7
20260505091743 12 150 0.0 0.0 0.00 0.00 0.00 77 994.7
20260505091700 12 149 0.0 0.0 0.00 0.00 0.00 77 994.7
20260505091245 12 144 0.0 0.0 0.00 0.00 0.00 77 994.7
20260505091158 12 144 0.0 0.0 0.00 0.00 0.00 76 994.7
20260505090744 12 146 0.0 0.0 0.00 0.00 0.00 76 994.6
20260505090655 12 146 0.0 0.0 0.00 0.00 0.00 76 994.7
20260505090245 12 145 0.0 0.0 0.00 0.00 0.00 76 994.6
20260505090154 12 200 0.0 0.0 0.00 0.00 0.00 75 994.7
20260505090026 12 200 0.0 0.0 0.00 0.00 0.00 75 994.5
20260505085650 12 200 0.0 0.0 0.00 0.00 0.00 75 994.7
20260505085245 12 82 0.0 0.0 0.00 0.00 0.00 75 994.4
20260505085149 12 82 0.0 0.0 0.00 0.00 0.00 75 994.4
20260505084745 12 84 0.0 0.0 0.00 0.00 0.00 75 994.3
20260505084646 12 105 0.0 0.0 0.00 0.00 0.00 74 994.4
20260505084527 12 105 0.0 0.0 0.00 0.00 0.00 74 994.3
20260505084145 13 105 0.0 0.0 0.00 0.00 0.00 74 994.4
20260505083739 13 105 0.0 0.0 0.00 0.00 0.00 74 994.3
20260505083642 13 105 0.0 0.0 0.00 0.00 0.00 74 994.4
20260505083239 13 100 0.0 0.0 0.00 0.00 0.00 73 994.3
20260505083138 13 101 0.0 0.0 0.00 0.00 0.00 73 994.4
20260505082739 13 98 0.0 0.0 0.00 0.00 0.00 72 994.3
20260505082634 13 98 0.0 0.0 0.00 0.00 0.00 72 994.4
20260505082237 13 98 0.0 0.0 0.00 0.00 0.00 73 994.3
20260505082131 13 98 0.0 0.0 0.00 0.00 0.00 72 994.4
20260505081739 13 109 0.0 0.0 0.00 0.00 0.00 72 994.4
20260505081627 13 130 0.0 0.0 0.00 0.00 0.00 72 994.4
20260505081238 13 130 0.0 0.0 0.00 0.00 0.00 72 994.4
20260505081125 13 65 0.0 0.0 0.00 0.00 0.00 73 994.4
20260505080738 13 106 0.0 0.0 0.00 0.00 0.00 73 994.3
20260505080621 13 105 0.0 0.0 0.00 0.00 0.00 72 994.4
20260505080238 13 137 0.0 0.0 0.00 0.00 0.00 72 994.3
20260505080117 13 165 0.0 0.0 0.00 0.00 0.00 73 994.4
20260505075737 13 155 0.0 0.0 0.00 0.00 0.00 73 994.3
20260505075614 13 155 0.0 0.0 0.00 0.00 0.00 73 994.4
20260505075237 13 159 0.0 0.0 0.00 0.00 0.00 73 994.3
20260505075110 13 131 0.0 0.0 0.00 0.00 0.00 73 994.4
20260505074737 13 95 0.0 0.0 0.00 0.00 0.00 73 994.3
20260505074607 13 94 0.0 0.0 0.00 0.00 0.00 73 994.4
20260505074237 13 94 0.0 0.0 0.00 0.00 0.00 73 994.3
20260505074104 13 56 0.0 0.0 0.00 0.00 0.00 73 994.4
20260505074016 13 111 0.0 0.0 0.00 0.00 0.00 73 994.3
20260505073602 13 172 0.0 0.0 0.00 0.00 0.00 73 994.4
20260505073237 13 196 0.0 0.0 0.00 0.00 0.00 74 994.3
20260505073100 13 201 0.0 0.0 0.00 0.00 0.00 74 994.4
20260505072746 13 153 0.0 0.0 0.00 0.00 0.00 74 994.2
20260505072555 13 158 0.0 0.0 0.00 0.00 0.00 75 994.4
20260505072243 13 150 0.0 0.0 0.00 0.00 0.00 75 994.2
20260505072052 12 167 0.0 0.0 0.00 0.00 0.00 75 994.4
20260505071743 12 150 0.0 0.0 0.00 0.00 0.00 76 994.2
20260505071548 12 163 0.0 0.0 0.00 0.00 0.00 76 994.4
20260505071243 12 97 0.0 0.0 0.00 0.00 0.00 76 994.3
20260505071046 12 157 0.0 0.0 0.00 0.00 0.00 77 994.4
20260505070741 12 191 0.0 0.0 0.00 0.00 0.00 77 994.2
20260505070543 12 141 0.0 0.0 0.00 0.00 0.00 77 994.4
20260505070520 12 131 0.0 0.0 0.00 0.00 0.00 77 994.3
20260505070039 12 131 0.0 0.0 0.00 0.00 0.00 77 994.4
20260505065740 12 132 0.0 0.0 0.00 0.00 0.00 77 994.4
20260505065535 12 141 0.0 0.0 0.00 0.00 0.00 78 994.4
20260505065237 12 141 0.0 0.0 0.00 0.00 0.00 78 994.4
20260505065032 12 167 0.0 0.0 0.00 0.00 0.00 78 994.7
20260505064738 12 169 0.0 0.0 0.00 0.00 0.00 78 994.5
20260505064528 12 163 0.0 0.0 0.00 0.00 0.00 79 994.7
20260505064237 12 163 0.0 0.0 0.00 0.00 0.00 79 994.6
20260505064027 12 162 0.0 0.0 0.00 0.00 0.00 78 994.7
20260505063735 12 162 0.0 0.0 0.00 0.00 0.00 78 994.6
20260505063524 12 261 0.0 0.0 0.00 0.00 0.00 78 994.7
20260505063236 12 262 0.0 0.0 0.00 0.00 0.00 78 994.6
20260505063020 12 262 0.0 0.0 0.00 0.00 0.00 78 994.7
20260505062731 12 263 0.0 0.0 0.00 0.00 0.00 78 994.6
20260505062524 12 263 0.0 0.0 0.00 0.00 0.00 77 994.6
20260505062517 12 263 0.0 0.0 0.00 0.00 0.00 77 994.7
20260505062014 12 263 0.0 0.0 0.00 0.00 0.00 77 994.7
20260505061729 12 263 0.0 0.0 0.00 0.00 0.00 76 994.6
20260505061511 12 263 0.0 0.0 0.00 0.00 0.00 76 994.7
20260505061227 12 267 0.0 0.0 0.00 0.00 0.00 76 994.6
20260505061009 12 267 0.0 0.0 0.00 0.00 0.00 76 994.7
20260505060718 12 267 0.0 0.0 0.00 0.00 0.00 76 994.6
20260505060506 12 155 0.0 0.0 0.00 0.00 0.00 76 994.7
20260505060211 12 168 0.0 0.0 0.00 0.00 0.00 75 994.5
20260505060002 12 168 0.0 0.0 0.00 0.00 0.00 75 994.7
20260505055711 12 168 0.0 0.0 0.00 0.00 0.00 75 994.5
20260505055458 12 168 0.0 0.0 0.00 0.00 0.00 75 994.7
20260505055453 12 168 0.0 0.0 0.00 0.00 0.00 75 994.6
20260505054955 12 168 0.0 0.0 0.00 0.00 0.00 75 994.7
20260505054713 12 168 0.0 0.0 0.00 0.00 0.00 75 994.6
20260505054453 12 159 0.0 0.0 0.00 0.00 0.00 74 994.7
20260505054212 12 153 0.0 0.0 0.00 0.00 0.00 74 994.6
20260505053950 12 128 0.0 0.0 0.00 0.00 0.00 74 994.7
20260505053713 12 128 0.0 0.0 0.00 0.00 0.00 74 994.6
20260505053447 12 128 0.0 0.0 0.00 0.00 0.00 74 994.7
20260505053210 12 127 0.0 0.0 0.00 0.00 0.00 74 994.6
20260505052944 12 171 0.0 0.0 0.00 0.00 0.00 74 994.7
20260505052441 12 173 0.0 0.0 0.00 0.00 0.00 75 994.7
20260505052206 12 173 0.0 0.0 0.00 0.00 0.00 75 994.7
20260505051938 12 173 0.0 0.0 0.00 0.00 0.00 75 994.7
20260505051708 12 173 0.0 0.0 0.00 0.00 0.00 75 994.7
20260505051435 12 173 0.0 0.0 0.00 0.00 0.00 75 994.7
20260505051207 12 173 0.0 0.0 0.00 0.00 0.00 75 994.7
20260505050933 12 175 0.0 0.0 0.00 0.00 0.00 76 994.7
20260505050703 12 142 0.0 0.0 0.00 0.00 0.00 76 994.7
20260505050431 12 141 0.0 0.0 0.00 0.00 0.00 76 994.7
20260505050203 12 144 0.0 0.0 0.00 0.00 0.00 76 994.7